Date,TemperatureHighF,TemperatureAvgF,TemperatureLowF,DewpointHighF,DewpointAvgF,DewpointLowF,HumidityHigh,HumidityAvg,HumidityLow,PressureMaxIn,PressureMinIn,WindSpeedMaxMPH,WindSpeedAvgMPH,GustSpeedMaxMPH,PrecipitationSumIn
2013-9-1,103.7,90.4,77.7,75.0,69.8,61.0,87,55,25,29.85,29.71,6,1,0,0.01
2013-9-2,106.4,90.9,79.6,71.0,65.9,61.0,75,46,23,29.84,29.69,15,2,0,0.00
2013-9-3,105.6,90.7,75.0,71.0,66.0,60.0,84,49,23,29.87,29.72,4,1,0,0.00
2013-9-4,99.1,90.7,83.5,75.0,67.8,65.0,76,48,33,29.87,29.77,9,2,0,0.10
2013-9-5,107.7,92.0,77.0,69.0,64.2,55.0,71,43,21,29.85,29.72,14,1,0,0.00
2013-9-6,108.2,89.6,75.2,73.0,65.0,57.0,89,50,19,29.90,29.68,12,1,0,0.61
2013-9-7,93.6,83.0,76.1,75.0,70.0,64.0,87,67,39,29.92,29.80,8,1,0,0.00
2013-9-8,95.4,85.8,78.1,75.0,68.9,64.0,84,60,36,29.81,29.69,8,1,0,0.00
2013-9-9,93.2,81.4,73.3,72.0,68.5,64.0,89,67,40,29.79,29.63,14,2,0,0.05
2013-9-10,86.6,77.0,70.5,70.0,67.4,62.0,92,74,45,29.85,29.74,8,1,0,0.11
2013-9-11,95.4,83.4,73.5,68.0,64.2,56.0,78,55,28,29.93,29.80,7,1,0,0.00
2013-9-12,99.2,85.4,72.2,69.0,61.7,49.0,84,50,20,29.87,29.72,10,1,0,0.00
2013-9-13,100.9,86.4,72.0,66.0,60.0,51.0,78,46,19,29.74,29.57,9,1,0,0.00
2013-9-14,104.6,89.7,74.5,61.0,55.7,46.0,61,35,15,29.66,29.56,5,1,0,0.00
2013-9-15,106.9,92.0,76.4,59.0,55.3,48.0,53,32,14,29.71,29.61,7,1,0,0.00
2013-9-16,108.4,93.9,78.8,62.0,54.2,44.0,51,29,12,29.74,29.61,8,1,0,0.00
2013-9-17,107.7,93.6,77.6,60.0,49.3,39.0,39,24,12,29.68,29.52,17,3,0,0.00
2013-9-18,100.3,86.4,69.2,50.0,41.5,32.0,45,22,9,29.67,29.57,8,1,0,0.00
2013-9-19,100.2,84.9,69.6,52.0,43.6,36.0,48,26,11,29.74,29.64,7,1,0,0.00
2013-9-20,103.1,87.1,68.1,52.0,43.2,36.0,40,23,11,29.77,29.65,13,2,0,0.00
2013-9-21,100.8,88.4,74.3,54.0,45.4,31.0,45,25,9,29.75,29.56,13,3,0,0.00
2013-9-22,86.1,77.2,67.7,51.0,37.5,29.0,47,25,13,29.77,29.59,13,3,0,0.00
2013-9-23,94.0,77.1,60.7,39.0,35.4,29.0,42,24,10,29.89,29.77,8,1,0,0.00
2013-9-24,98.4,82.1,62.1,42.0,34.7,27.0,40,21,8,29.91,29.73,9,2,0,0.00
2013-9-25,94.9,83.6,72.8,53.0,40.2,24.0,47,23,13,29.75,29.53,14,5,0,0.00
2013-9-26,83.6,74.1,62.4,38.0,28.5,16.0,32,19,10,29.78,29.58,10,3,0,0.00
2013-9-27,81.8,69.0,53.4,30.0,26.0,22.0,37,21,12,29.98,29.78,13,3,0,0.00
2013-9-28,88.9,70.4,51.2,33.0,27.0,19.0,48,23,8,30.08,29.96,7,1,0,0.00
2013-9-29,93.6,75.3,56.7,35.0,28.3,22.0,29,19,10,30.07,29.91,6,1,0,0.00
2013-9-30,96.7,78.7,59.2,39.0,33.6,28.0,41,22,9,29.94,29.78,7,1,0,0.00